This is the latest recevied weather packets stored in our database for station/object G4WLC-1. If no packets are shown the sender has not sent any weather packets the latest 10 day(s).
| Time | Temp. | Humidity | Pressure | Rain* | Wind** | Luminosity | Snow |
|---|---|---|---|---|---|---|---|
| 1788523922 | 17.78° C | 70% | 1015.2 hPa | 0 mm | - | - | - |
| 1788523622 | 17.78° C | 74% | 1015.1 hPa | 0 mm | - | - | - |
| 1788523322 | 17.78° C | 73% | 1014.8 hPa | 0 mm | - | - | - |
| 1788523022 | 17.78° C | 71% | 1014.9 hPa | 0 mm | - | - | - |
| 1788522722 | 17.78° C | 71% | 1014.9 hPa | 0 mm | - | - | - |
| 1788522422 | 17.78° C | 70% | 1014.9 hPa | 0 mm | - | - | - |
| 1788522141 | 17.78° C | 72% | 1014.8 hPa | 0 mm | - | - | - |
| 1788521822 | 17.78° C | 71% | 1014.9 hPa | 0 mm | - | - | - |
| 1788521522 | 17.78° C | 72% | 1014.6 hPa | 0 mm | - | - | - |
| 1788521222 | 17.78° C | 72% | 1014.4 hPa | 0 mm | - | - | - |
| 1788520922 | 17.22° C | 73% | 1014.6 hPa | 0 mm | - | - | - |
| 1788520622 | 17.22° C | 75% | 1014.6 hPa | 0 mm | - | - | - |
| 1788520322 | 17.22° C | 77% | 1014.5 hPa | 0 mm | - | - | - |
| 1788520022 | 17.22° C | 77% | 1014.5 hPa | 0 mm | - | - | - |
| 1788519722 | 17.22° C | 78% | 1014.4 hPa | 0 mm | - | - | - |
| 1788519422 | 17.22° C | 80% | 1014.3 hPa | 0 mm | - | - | - |
| 1788519122 | 16.67° C | 80% | 1014 hPa | 0 mm | - | - | - |
| 1788518822 | 16.67° C | 81% | 1014.1 hPa | 0 mm | - | - | - |
| 1788518522 | 16.67° C | 81% | 1013.9 hPa | 0 mm | - | - | - |
| 1788518222 | 16.11° C | 82% | 1013.9 hPa | 0 mm | - | - | - |
| 1788517922 | 16.11° C | 83% | 1014.1 hPa | 0 mm | - | - | - |
| 1788517622 | 16.11° C | 84% | 1014.1 hPa | 0 mm | - | - | - |
| 1788517322 | 16.11° C | 85% | 1014.2 hPa | 0 mm | - | - | - |
| 1788517022 | 16.11° C | 85% | 1014 hPa | 0 mm | - | - | - |
| 1788516722 | 16.11° C | 84% | 1013.8 hPa | 0 mm | - | - | - |
* Rain latest hour (hover to see other rain measurements)
** Current wind speed in m/s (hover to see current wind gust speed)